[[{"header":{"parameterUnit":"m.s-1","parameterCategory":1,"la1":30.2991,"la2":30.254,"lo1":-89.0895,"lo2":-89.0444,"dy":0.0017,"dx":0.0017,"nx":28,"ny":28,"refTime":"2025-07-08T21:00:00:Z","depth":0,"parameterNumber":2,"parameterNumberName":"U-component_of_WINDS"},"data":[0,0,0,0,0,0,0,0,0,0,0,0,0,0,0,0,0,0,0,0,0,0,0,0,0,0,0,0,0,0,0,0,0,0,0,0,0,0,0,0,0,0,0,0,0,0,0,0,0,0,0,0,0,0,0,0,0,0,2.4759,2.476,0,2.4796,2.4796,2.4797,2.4776,2.4775,2.4774,2.4773,2.4807,2.4808,2.481,0,0,0,0,0,0,0,0,0,0,0,0,0,2.4668,2.467,2.4759,2.476,2.476,2.4796,2.4796,2.4797,2.4776,2.4775,2.4773,2.4772,2.4806,2.4808,2.481,0,0,0,0,0,0,0,0,0,0,0,0,0,2.4707,2.4671,2.4759,2.4754,2.4754,2.4796,2.4796,2.4797,2.4776,2.4774,2.4773,2.4772,2.4805,2.4808,2.4811,2.4858,0,0,2.4819,2.482,0,0,0,0,0,0,0,0,2.4704,2.471,2.4754,2.4754,2.4754,2.478,2.4777,2.4817,2.4776,2.4768,2.4773,2.4771,2.4799,2.4802,2.4812,2.486,2.4861,2.482,2.4821,2.4822,2.4823,0,0,0,0,0,0,0,2.4702,2.4708,2.4773,2.4755,2.4755,2.4749,2.4753,2.4784,2.4791,2.4768,2.4767,2.4772,2.4798,2.4809,2.4813,2.4862,2.4819,2.4822,2.4824,2.4825,2.4951,2.4953,0,0,0,0,0,0,2.47,2.4706,2.4772,2.4775,2.4725,2.4752,2.4756,2.4773,2.4791,2.4792,2.4773,2.477,2.4805,2.4809,2.4814,2.4871,2.4822,2.4825,2.4827,2.495,2.4952,2.4954,0,0,0,0,0,0,2.4698,2.4706,2.4771,2.474,2.4748,2.4755,2.4774,2.4775,2.4786,2.4794,2.4795,2.4783,2.4804,2.481,2.4848,2.4872,2.4826,2.4829,2.4948,2.495,2.4953,2.4986,0,0,0,0,0,0,2.4696,2.4706,2.4724,2.4741,2.475,2.4805,2.4776,2.4776,2.4791,2.4788,2.4804,2.4805,2.4804,2.4844,2.4851,2.4875,2.4831,2.4946,2.4949,2.4952,2.4983,2.499,2.4995,0,0,0,0,0,2.4692,2.4731,2.4725,2.4733,2.4773,2.4807,2.4812,2.481,2.4793,2.4811,2.4817,2.4805,2.4868,2.4848,2.4855,2.4881,2.4944,2.4948,2.4952,2.498,2.4988,2.4995,0,0,0,0,0,0,2.4716,2.4733,2.4727,2.4773,2.4789,2.4803,2.4827,2.4819,2.4839,2.4835,2.4831,2.4835,2.4875,2.4881,2.4858,2.4928,2.4903,2.4909,2.4923,2.493,2.4936,2.4934,2.4833,0,0,0,0,0,2.4727,2.4754,2.4767,2.4806,2.4814,2.4819,2.4834,2.4831,2.4847,2.4853,2.4862,2.4877,2.49,2.4915,2.4937,2.4984,2.4987,2.5005,2.5011,2.5016,2.5021,2.5047,2.5055,2.4966,2.4966,2.4966,0,0,2.4749,2.4762,2.4779,2.4811,2.4823,2.485,2.4825,2.4854,2.4874,2.4857,2.4894,2.4901,2.4917,2.496,2.4979,2.4967,2.5047,2.5021,2.5025,2.5027,2.5052,2.506,2.5068,2.4969,2.4968,2.4968,0,0,2.4803,2.4816,2.485,2.4863,2.4882,2.4885,2.4894,2.491,2.4914,2.4951,2.494,2.4963,2.5003,2.5015,2.5027,2.5087,2.5076,2.5094,2.5126,2.5151,2.5158,2.5165,2.5186,2.5194,2.5099,2.5099,2.5099,0,2.4828,2.4869,2.4868,2.4899,2.4914,2.4901,2.4936,2.4948,2.4973,2.4983,2.4969,2.502,2.503,2.5076,2.5091,2.51,2.5109,2.5092,2.5158,2.5164,2.517,2.519,2.5199,2.5101,2.5101,2.5101,2.51,0,2.4899,2.4928,2.4953,2.4979,2.4997,2.5029,2.5032,2.505,2.5046,2.505,2.5088,2.51,2.5125,2.5135,2.5131,2.5181,2.5173,2.5158,2.5133,2.518,2.52,2.5208,2.5104,2.5103,2.5103,2.5102,0,0,2.4968,2.4995,2.5004,2.5016,2.5037,2.5059,2.509,2.5116,2.5131,2.5149,2.5175,2.521,2.5198,2.5211,2.5208,2.523,2.5277,2.5213,2.5213,2.5225,2.5333,2.5344,2.5353,2.527,2.5272,2.5273,2.5332,0,2.5024,2.5082,2.5082,2.5134,2.5161,2.515,2.5178,2.5193,2.5198,2.5221,2.5226,2.5251,2.5232,2.524,2.5261,2.5267,2.5299,2.5263,2.5294,2.5295,2.5291,2.5363,2.5375,2.543,2.5339,2.5341,2.5342,0,2.5097,2.5119,2.5175,2.5193,2.5204,2.5229,2.5253,2.5275,2.5292,2.5294,2.5309,2.5303,2.5335,2.5309,2.5352,2.5328,2.5341,2.5346,2.5348,2.5351,2.5322,2.5368,2.5447,2.5455,2.5353,2.5352,2.5352,0,2.5143,2.5186,2.5225,2.5236,2.5258,2.5276,2.5285,2.5301,2.5317,2.5337,2.5347,2.537,2.5383,2.5401,2.5401,2.5382,2.5445,2.5419,2.5447,2.5447,2.5461,2.546,2.5543,2.5469,2.5469,2.5468,2.5468,0,2.5206,2.524,2.5247,2.5271,2.5309,2.5309,2.5346,2.5354,2.5368,2.5393,2.5384,2.5407,2.5406,2.5429,2.5429,2.5466,2.5471,2.5473,2.5473,2.5474,2.5474,2.5483,2.5479,2.5471,2.547,2.547,2.5469,0,2.5263,2.5269,2.5311,2.5329,2.5334,2.5362,2.5376,2.5399,2.5403,2.5435,2.5442,2.5449,2.5476,2.5478,2.5509,2.5509,2.5553,2.5548,2.5548,2.5547,2.5576,2.5573,2.5667,2.568,2.5597,2.5598,2.5599,0,2.5303,2.5329,2.5351,2.5368,2.5379,2.5406,2.5422,2.5423,2.544,2.5462,2.5482,2.5508,2.553,2.5573,2.558,2.5604,2.56,2.5631,2.5603,2.5604,2.5601,2.5599,2.5602,2.5637,2.5638,2.5638,2.5639,0,2.5373,2.5375,2.5399,2.5426,2.5446,2.5466,2.5485,2.5499,2.5502,2.5521,2.555,2.5567,2.5599,2.5625,2.5649,2.5657,2.5649,2.5648,2.5656,2.5657,2.5656,2.5658,2.5563,2.5646,2.5645,2.5644,2.5644,2.5644,2.5423,2.5446,2.5465,2.5493,2.5508,2.5526,2.5549,2.5557,2.5581,2.5609,2.5608,2.5639,2.5656,2.5686,2.5697,2.5721,2.571,2.5721,2.5724,2.5727,2.5731,2.5653,2.5725,2.5725,2.5725,2.5725,2.5724,0,2.5492,2.5505,2.5531,2.5558,2.558,2.5572,2.5593,2.5611,2.564,2.5657,2.5678,2.5711,2.5737,2.5747,2.5772,2.5789,2.5786,2.5796,2.5794,2.5796,2.5738,2.5729,2.5798,2.5798,2.5798,2.5798,2.5798,2.5798,2.5531,2.5571,2.5575,2.5622,2.5634,2.5666,2.5678,2.5695,2.5709,2.5746,2.5769,2.5775,2.5789,2.5815,2.5839,2.5841,2.585,2.5862,2.5862,2.5808,2.58,2.5793,2.5785,2.5864,2.5864,2.5918,2.5919,2.5919]},{"header":{"parameterUnit":"m.s-1","parameterCategory":1,"la1":30.2991,"la2":30.254,"lo1":-89.0895,"lo2":-89.0444,"dy":0.0017,"dx":0.0017,"nx":28,"ny":28,"refTime":"2025-07-08T21:00:00:Z","depth":0,"parameterNumber":3,"parameterNumberName":"V-component_of_WINDS"},"data":[0,0,0,0,0,0,0,0,0,0,0,0,0,0,0,0,0,0,0,0,0,0,0,0,0,0,0,0,0,0,0,0,0,0,0,0,0,0,0,0,0,0,0,0,0,0,0,0,0,0,0,0,0,0,0,0,0,0,1.475,1.4749,0,1.4645,1.4643,1.4642,1.4611,1.4612,1.4612,1.4613,1.45,1.4497,1.4493,0,0,0,0,0,0,0,0,0,0,0,0,0,1.4918,1.4915,1.475,1.4748,1.4747,1.4645,1.4643,1.4642,1.4611,1.4612,1.4612,1.4613,1.4501,1.4497,1.4493,0,0,0,0,0,0,0,0,0,0,0,0,0,1.4832,1.4914,1.475,1.4719,1.4716,1.4645,1.4643,1.4642,1.4611,1.4612,1.4612,1.4613,1.4503,1.4497,1.4492,1.4443,0,0,1.4476,1.4474,0,0,0,0,0,0,0,0,1.4837,1.4826,1.4725,1.4721,1.4717,1.4642,1.4661,1.4575,1.461,1.465,1.4613,1.4614,1.4546,1.4537,1.4516,1.4438,1.4433,1.4476,1.4472,1.447,1.4469,0,0,0,0,0,0,0,1.4843,1.483,1.4708,1.4724,1.4719,1.4709,1.4698,1.4645,1.4595,1.4647,1.4644,1.4633,1.4544,1.4521,1.4513,1.4431,1.4476,1.4471,1.4468,1.4466,1.4306,1.4305,0,0,0,0,0,0,1.4855,1.4835,1.4711,1.4705,1.478,1.4706,1.4693,1.4665,1.4595,1.4586,1.4632,1.4632,1.4529,1.4519,1.4509,1.4445,1.447,1.4465,1.4462,1.4307,1.4306,1.4305,0,0,0,0,0,0,1.4859,1.4844,1.4716,1.4769,1.4752,1.4702,1.4671,1.4663,1.4639,1.4584,1.4574,1.4618,1.453,1.4516,1.446,1.4441,1.4463,1.4458,1.4308,1.4307,1.4305,1.4319,0,0,0,0,0,0,1.4864,1.4846,1.4828,1.4769,1.475,1.467,1.467,1.466,1.4631,1.4629,1.4568,1.4559,1.4529,1.4468,1.4454,1.4434,1.4454,1.431,1.4308,1.4306,1.432,1.4318,1.4317,0,0,0,0,0,1.487,1.4835,1.4827,1.4812,1.4726,1.4669,1.4657,1.4625,1.463,1.461,1.4575,1.4561,1.4446,1.4462,1.4447,1.4425,1.4311,1.4308,1.4306,1.4321,1.4319,1.4317,0,0,0,0,0,0,1.4891,1.4827,1.4817,1.4763,1.4722,1.4664,1.4638,1.4624,1.458,1.458,1.4541,1.4527,1.4473,1.4443,1.4463,1.4373,1.4378,1.4372,1.4394,1.4392,1.439,1.4397,1.445,0,0,0,0,0,1.489,1.485,1.4795,1.4753,1.4733,1.4689,1.4663,1.4642,1.4597,1.4579,1.4539,1.4495,1.4448,1.4418,1.4373,1.4316,1.4301,1.4293,1.4292,1.4291,1.4286,1.4252,1.4247,1.4297,1.4297,1.4297,0,0,1.4886,1.4846,1.4823,1.4756,1.4721,1.4679,1.4675,1.463,1.4598,1.4572,1.4516,1.4485,1.4433,1.4376,1.4349,1.4349,1.4269,1.4287,1.4287,1.4282,1.4249,1.4244,1.424,1.4295,1.4295,1.4296,0,0,1.4857,1.4824,1.4784,1.475,1.4698,1.467,1.466,1.4604,1.4583,1.4527,1.4506,1.4467,1.4388,1.4351,1.4322,1.428,1.4264,1.4266,1.4256,1.4224,1.422,1.4216,1.4199,1.4194,1.4261,1.4261,1.4261,0,1.4858,1.4795,1.4765,1.4722,1.4692,1.4668,1.4626,1.4594,1.453,1.4509,1.4511,1.4412,1.4375,1.4308,1.4298,1.4276,1.4262,1.4272,1.4223,1.4219,1.4215,1.4199,1.4193,1.4262,1.4262,1.4262,1.4262,0,1.4799,1.4756,1.4729,1.4669,1.4637,1.4595,1.4556,1.4526,1.4508,1.4479,1.4421,1.4376,1.4321,1.4304,1.4285,1.4234,1.4236,1.4231,1.4235,1.4211,1.4195,1.4189,1.4262,1.4262,1.4262,1.4262,0,0,1.4779,1.4703,1.4694,1.4666,1.4608,1.4573,1.4529,1.4476,1.4451,1.4408,1.4368,1.4303,1.4298,1.4265,1.4242,1.4214,1.4181,1.4212,1.421,1.4207,1.412,1.4123,1.4116,1.4172,1.417,1.4169,1.4124,0,1.4742,1.4664,1.4635,1.4571,1.453,1.4506,1.4467,1.4427,1.4398,1.4357,1.4325,1.4278,1.4277,1.4256,1.4228,1.4192,1.4163,1.4194,1.4133,1.4131,1.4145,1.4108,1.4111,1.4071,1.4118,1.4117,1.4116,0,1.4688,1.4645,1.4577,1.4524,1.4505,1.4471,1.442,1.4382,1.4335,1.4316,1.4279,1.4258,1.4209,1.4217,1.4149,1.4171,1.4144,1.4122,1.412,1.4111,1.4121,1.4097,1.4057,1.405,1.4106,1.4107,1.4107,0,1.4679,1.4604,1.4554,1.4531,1.4467,1.4444,1.4416,1.4369,1.4339,1.4294,1.4273,1.4223,1.4195,1.4155,1.412,1.4129,1.4054,1.4059,1.4035,1.4036,1.4019,1.402,1.3972,1.4004,1.4004,1.4004,1.4005,0,1.4639,1.4598,1.4549,1.4518,1.447,1.4437,1.439,1.436,1.4319,1.428,1.4257,1.422,1.4177,1.4135,1.4107,1.4054,1.4041,1.4023,1.4016,1.4024,1.4026,1.4005,1.4006,1.4003,1.4003,1.4003,1.4004,0,1.462,1.4586,1.4529,1.4474,1.4459,1.4427,1.4378,1.4346,1.4317,1.4268,1.4254,1.4207,1.4156,1.4118,1.4052,1.4033,1.3975,1.3968,1.3992,1.3988,1.3965,1.3967,1.39,1.3889,1.393,1.393,1.393,0,1.4597,1.4565,1.4507,1.448,1.4453,1.4409,1.4379,1.4344,1.4313,1.4256,1.4231,1.4178,1.4134,1.4053,1.4012,1.3961,1.3952,1.3932,1.3944,1.3953,1.3949,1.3951,1.3947,1.393,1.3929,1.3929,1.3929,0,1.4558,1.4543,1.4501,1.4452,1.4417,1.4377,1.4336,1.4315,1.4273,1.4239,1.4187,1.4153,1.4086,1.4033,1.3978,1.3947,1.393,1.3926,1.3917,1.3925,1.3939,1.3929,1.3986,1.3927,1.3927,1.3927,1.3928,1.3928,1.4535,1.4505,1.446,1.4413,1.4379,1.4342,1.4309,1.4276,1.4232,1.4176,1.4158,1.4104,1.4056,1.398,1.3949,1.3905,1.3904,1.3892,1.3889,1.3886,1.3886,1.3948,1.3894,1.3894,1.3894,1.3894,1.3894,0,1.4494,1.4463,1.4421,1.4366,1.4329,1.4319,1.4273,1.4242,1.4195,1.4153,1.4111,1.4051,1.4,1.3955,1.3902,1.3875,1.3866,1.3862,1.3863,1.3855,1.389,1.3902,1.387,1.387,1.387,1.387,1.387,1.387,1.4468,1.4416,1.4396,1.4326,1.4296,1.4244,1.4219,1.4183,1.4149,1.4084,1.4042,1.4014,1.397,1.3913,1.3865,1.3853,1.3834,1.3832,1.3818,1.385,1.3853,1.3856,1.3867,1.3828,1.3828,1.3786,1.3786,1.3786]}]]